Location: Ariel
(45.9570°N, 122.5700°W)
Time: 11:55:53
(UTC-07:00)

A-11 Canister half - Pass Details

Date: 01 September 2019
Orbit: 1514 x 1686 km, 47.2° (Epoch: 14 October)

Event Time Altitude Azimuth Distance (km) Brightness Sun altitude
Rises 23:21:44 0° 292° (WNW) 4,756 12.3 -30.9°
Reaches altitude 10° 23:25:11 10° 283° (WNW) 3,794 11.5 -31.2°
Maximum altitude 23:33:17 32° 226° (SW) 2,532 9.9 -31.9°
Enters shadow 23:34:01 31° 218° (SW) 2,549 9.9 -31.9°
